[[{"header":{"parameterUnit":"m.s-1","parameterCategory":2,"la1":30.2991,"la2":30.254,"lo1":-89.0895,"lo2":-89.0444,"dy":0.0017,"dx":0.0017,"nx":28,"ny":28,"refTime":"2024-08-11T09:00:00:Z","depth":"0","parameterNumber":2,"parameterNumberName":"U-component_of_CURRENTS"},"data":[0,0,0,0,0,0,0,0,0,0,0,0,0,0,0,0,0,0,0,0,0,0,0,0,0,0,0,0,0,0,0,0,0,0,0,0,0,0,0,0,0,0,0,0,0,0,0,0,0,0,0,0,0,0,0,0,0,0,-0.2886,-0.2887,0,-0.2907,-0.2907,-0.2907,-0.2925,-0.2925,-0.2926,-0.2926,-0.2873,-0.2871,-0.2869,0,0,0,0,0,0,0,0,0,0,0,0,0,-0.2819,-0.282,-0.2886,-0.2887,-0.2887,-0.2907,-0.2907,-0.2907,-0.2925,-0.2925,-0.2926,-0.2926,-0.2873,-0.2871,-0.2869,0,0,0,0,0,0,0,0,0,0,0,0,0,-0.2843,-0.2821,-0.2886,-0.29,-0.2902,-0.2907,-0.2907,-0.2907,-0.2925,-0.2925,-0.2926,-0.2926,-0.2874,-0.2871,-0.2868,-0.2838,0,0,-0.286,-0.2859,0,0,0,0,0,0,0,0,-0.2841,-0.2845,-0.2898,-0.2899,-0.2901,-0.2916,-0.2864,-0.2881,-0.2924,-0.2913,-0.2926,-0.2927,-0.2881,-0.2878,-0.2878,-0.2836,-0.2834,-0.286,-0.2858,-0.2857,-0.2856,0,0,0,0,0,0,0,-0.284,-0.2844,-0.2892,-0.2898,-0.29,-0.2891,-0.2895,-0.2867,-0.289,-0.2914,-0.2916,-0.2922,-0.2882,-0.2881,-0.2877,-0.2833,-0.286,-0.2857,-0.2856,-0.2855,-0.2761,-0.276,0,0,0,0,0,0,-0.2844,-0.2842,-0.2891,-0.2893,-0.2875,-0.2892,-0.2897,-0.2909,-0.2892,-0.2891,-0.2922,-0.2923,-0.2885,-0.288,-0.2875,-0.2817,-0.2857,-0.2854,-0.2853,-0.2762,-0.2761,-0.276,0,0,0,0,0,0,-0.2843,-0.2848,-0.289,-0.287,-0.2875,-0.2893,-0.2906,-0.2909,-0.2912,-0.2899,-0.2897,-0.2923,-0.2885,-0.2879,-0.2855,-0.2816,-0.2853,-0.2851,-0.2763,-0.2762,-0.2761,-0.2716,0,0,0,0,0,0,-0.2841,-0.2848,-0.2846,-0.287,-0.2876,-0.2895,-0.2906,-0.2909,-0.2916,-0.2918,-0.2899,-0.2895,-0.2885,-0.2859,-0.2852,-0.2813,-0.2849,-0.2764,-0.2762,-0.2761,-0.2718,-0.2713,-0.2709,0,0,0,0,0,-0.2838,-0.2837,-0.2845,-0.2851,-0.2877,-0.2895,-0.2897,-0.291,-0.2915,-0.2915,-0.2904,-0.2896,-0.2844,-0.2856,-0.2848,-0.2808,-0.2765,-0.2763,-0.2761,-0.272,-0.2714,-0.2709,0,0,0,0,0,0,-0.2802,-0.2839,-0.2849,-0.2858,-0.2876,-0.2899,-0.2895,-0.2908,-0.29,-0.29,-0.2887,-0.2882,-0.2843,-0.2838,-0.2852,-0.2778,-0.2801,-0.2797,-0.2773,-0.2767,-0.2762,-0.2733,-0.2846,0,0,0,0,0,-0.2795,-0.2802,-0.2838,-0.2839,-0.2851,-0.2872,-0.2877,-0.2894,-0.2897,-0.2896,-0.2883,-0.2862,-0.2828,-0.281,-0.2788,-0.2748,-0.2729,-0.2717,-0.2713,-0.2708,-0.268,-0.2632,-0.2619,-0.2754,-0.2754,-0.2754,0,0,-0.2774,-0.2799,-0.2798,-0.2831,-0.2844,-0.2844,-0.2876,-0.289,-0.2874,-0.2887,-0.2853,-0.2845,-0.2816,-0.2772,-0.2754,-0.2763,-0.2664,-0.2706,-0.2703,-0.2676,-0.2628,-0.2615,-0.2603,-0.2753,-0.2753,-0.2753,0,0,-0.2735,-0.2767,-0.2756,-0.2778,-0.2808,-0.2824,-0.2829,-0.2856,-0.2852,-0.2832,-0.2827,-0.2797,-0.2762,-0.2725,-0.2701,-0.2654,-0.2643,-0.2655,-0.2598,-0.2552,-0.254,-0.2529,-0.2502,-0.2489,-0.2649,-0.2649,-0.2649,0,-0.2704,-0.27,-0.2753,-0.2755,-0.2755,-0.2812,-0.2793,-0.2801,-0.2811,-0.2789,-0.2816,-0.2744,-0.2727,-0.2645,-0.263,-0.2636,-0.2623,-0.2622,-0.2543,-0.2532,-0.2522,-0.2497,-0.2483,-0.2647,-0.2647,-0.2647,-0.2648,0,-0.2653,-0.2656,-0.2654,-0.2669,-0.2684,-0.2681,-0.2712,-0.2713,-0.2721,-0.272,-0.2666,-0.2654,-0.2606,-0.2598,-0.2594,-0.2506,-0.2526,-0.2546,-0.2555,-0.2505,-0.2483,-0.2469,-0.2643,-0.2644,-0.2645,-0.2646,0,0,-0.2542,-0.2602,-0.2594,-0.2587,-0.2636,-0.2635,-0.2625,-0.2608,-0.2581,-0.259,-0.2534,-0.2483,-0.2494,-0.2466,-0.2465,-0.2423,-0.2346,-0.2449,-0.2448,-0.2416,-0.2255,-0.2357,-0.2352,-0.2358,-0.2355,-0.2353,-0.2275,0,-0.2465,-0.2446,-0.2499,-0.2461,-0.2445,-0.2508,-0.2488,-0.2493,-0.25,-0.2472,-0.2457,-0.2413,-0.244,-0.2419,-0.2378,-0.2362,-0.2305,-0.2365,-0.2312,-0.231,-0.2401,-0.2337,-0.2263,-0.2195,-0.2261,-0.2259,-0.2258,0,-0.2361,-0.2368,-0.2325,-0.2347,-0.2346,-0.2336,-0.2316,-0.2315,-0.2315,-0.2322,-0.23,-0.2315,-0.2255,-0.2294,-0.2216,-0.226,-0.2232,-0.2224,-0.2221,-0.2314,-0.2385,-0.2252,-0.2167,-0.2045,-0.2237,-0.2238,-0.224,0,-0.221,-0.2228,-0.2184,-0.2192,-0.2237,-0.2215,-0.223,-0.2245,-0.2242,-0.2226,-0.2231,-0.2187,-0.2178,-0.2133,-0.2158,-0.2167,-0.2097,-0.2108,-0.2162,-0.217,-0.2092,-0.2099,-0.1871,-0.2008,-0.2008,-0.2008,-0.2008,0,-0.208,-0.2041,-0.211,-0.2083,-0.2039,-0.2103,-0.2059,-0.2083,-0.2107,-0.2107,-0.2139,-0.2144,-0.2137,-0.2135,-0.2121,-0.2129,-0.2066,-0.2125,-0.2144,-0.2081,-0.2088,-0.1972,-0.1959,-0.2005,-0.2006,-0.2006,-0.2007,0,-0.192,-0.1958,-0.1922,-0.196,-0.1969,-0.1936,-0.199,-0.1979,-0.2013,-0.2021,-0.2019,-0.2084,-0.2104,-0.2121,-0.2077,-0.2101,-0.2037,-0.2091,-0.2045,-0.2061,-0.2018,-0.2009,-0.1903,-0.1856,-0.2105,-0.2107,-0.2109,0,-0.1838,-0.1801,-0.1833,-0.1829,-0.1845,-0.1834,-0.1848,-0.1909,-0.1928,-0.2002,-0.2008,-0.2048,-0.2111,-0.2133,-0.2171,-0.2169,-0.2068,-0.2078,-0.2071,-0.1981,-0.198,-0.2002,-0.1969,-0.1938,-0.1938,-0.1938,-0.1938,0,-0.1693,-0.1709,-0.17,-0.1706,-0.1711,-0.173,-0.176,-0.1772,-0.1864,-0.1909,-0.1993,-0.205,-0.2139,-0.2183,-0.2229,-0.2183,-0.2006,-0.2085,-0.1951,-0.1797,-0.1834,-0.1811,-0.2048,-0.1938,-0.1938,-0.1938,-0.1938,-0.1938,-0.16,-0.1574,-0.1584,-0.158,-0.1602,-0.1633,-0.1624,-0.1712,-0.1767,-0.1863,-0.1963,-0.2068,-0.2119,-0.2217,-0.2184,-0.2019,-0.2077,-0.1887,-0.1871,-0.1894,-0.1872,-0.2155,-0.2117,-0.2118,-0.2119,-0.212,-0.212,0,-0.1505,-0.1489,-0.1473,-0.148,-0.1486,-0.1528,-0.1577,-0.159,-0.1668,-0.1825,-0.1932,-0.2038,-0.2048,-0.2015,-0.1917,-0.1802,-0.1734,-0.1662,-0.1565,-0.1533,-0.17,-0.1715,-0.1635,-0.1635,-0.1635,-0.1636,-0.1636,-0.1636,-0.1451,-0.1405,-0.1402,-0.1371,-0.1383,-0.1375,-0.139,-0.1448,-0.1544,-0.1679,-0.1799,-0.191,-0.1811,-0.1779,-0.1549,-0.1465,-0.1338,-0.1363,-0.1348,-0.1341,-0.1357,-0.1371,-0.1373,-0.1223,-0.1223,-0.1113,-0.1112,-0.1111]},{"header":{"parameterUnit":"m.s-1","parameterCategory":2,"la1":30.2991,"la2":30.254,"lo1":-89.0895,"lo2":-89.0444,"dy":0.0017,"dx":0.0017,"nx":28,"ny":28,"refTime":"2024-08-11T09:00:00:Z","depth":"0","parameterNumber":3,"parameterNumberName":"V-component_of_CURRENTS"},"data":[0,0,0,0,0,0,0,0,0,0,0,0,0,0,0,0,0,0,0,0,0,0,0,0,0,0,0,0,0,0,0,0,0,0,0,0,0,0,0,0,0,0,0,0,0,0,0,0,0,0,0,0,0,0,0,0,0,0,-0.0935,-0.0935,0,-0.0916,-0.0915,-0.0915,-0.0942,-0.0943,-0.0944,-0.0945,-0.0841,-0.0837,-0.0834,0,0,0,0,0,0,0,0,0,0,0,0,0,-0.093,-0.093,-0.0935,-0.0935,-0.0935,-0.0916,-0.0915,-0.0915,-0.0941,-0.0943,-0.0944,-0.0945,-0.0842,-0.0838,-0.0833,0,0,0,0,0,0,0,0,0,0,0,0,0,-0.0922,-0.093,-0.0935,-0.0947,-0.0948,-0.0916,-0.0915,-0.0915,-0.0941,-0.0943,-0.0945,-0.0946,-0.0844,-0.0838,-0.0833,-0.0764,0,0,-0.0815,-0.0813,0,0,0,0,0,0,0,0,-0.0922,-0.0922,-0.0945,-0.0946,-0.0947,-0.0934,-0.0875,-0.0861,-0.0941,-0.0942,-0.0945,-0.0947,-0.0864,-0.0857,-0.0848,-0.0759,-0.0754,-0.0815,-0.0811,-0.0809,-0.0807,0,0,0,0,0,0,0,-0.0923,-0.0922,-0.0926,-0.0945,-0.0946,-0.0931,-0.0932,-0.0873,-0.0891,-0.0942,-0.0944,-0.0944,-0.0864,-0.0854,-0.0846,-0.0753,-0.0815,-0.081,-0.0806,-0.0804,-0.0591,-0.0589,0,0,0,0,0,0,-0.093,-0.0923,-0.0926,-0.0925,-0.0941,-0.093,-0.0931,-0.0935,-0.0894,-0.089,-0.0943,-0.0946,-0.0863,-0.0853,-0.0842,-0.0769,-0.0809,-0.0803,-0.08,-0.0593,-0.059,-0.0588,0,0,0,0,0,0,-0.093,-0.0931,-0.0927,-0.0925,-0.0924,-0.0929,-0.0933,-0.0934,-0.0928,-0.0896,-0.0891,-0.0937,-0.0864,-0.085,-0.0792,-0.0765,-0.0801,-0.0796,-0.0596,-0.0592,-0.0589,-0.0615,0,0,0,0,0,0,-0.093,-0.0931,-0.0929,-0.0926,-0.0924,-0.0903,-0.0932,-0.0933,-0.0927,-0.093,-0.0888,-0.0881,-0.0864,-0.0801,-0.0787,-0.0758,-0.0791,-0.0599,-0.0594,-0.059,-0.0617,-0.0613,-0.0609,0,0,0,0,0,-0.093,-0.0919,-0.0929,-0.093,-0.0924,-0.0902,-0.0898,-0.0907,-0.0925,-0.091,-0.089,-0.0882,-0.0764,-0.0795,-0.0778,-0.0747,-0.0601,-0.0595,-0.0591,-0.0619,-0.0614,-0.0609,0,0,0,0,0,0,-0.0909,-0.0921,-0.0932,-0.0924,-0.0914,-0.0907,-0.0893,-0.0901,-0.0874,-0.0876,-0.0856,-0.0845,-0.078,-0.075,-0.0785,-0.0669,-0.0678,-0.067,-0.0705,-0.07,-0.0696,-0.0704,-0.0786,0,0,0,0,0,-0.0905,-0.0906,-0.0907,-0.0898,-0.0892,-0.0892,-0.0883,-0.0888,-0.0869,-0.0861,-0.0833,-0.0791,-0.0741,-0.0715,-0.0662,-0.0598,-0.0591,-0.0563,-0.0559,-0.0557,-0.0548,-0.052,-0.0515,-0.0571,-0.0571,-0.0572,0,0,-0.0895,-0.0901,-0.09,-0.0894,-0.0887,-0.087,-0.089,-0.0872,-0.0857,-0.0847,-0.0807,-0.0771,-0.0719,-0.0657,-0.0624,-0.0634,-0.0538,-0.055,-0.0549,-0.0542,-0.0515,-0.051,-0.0505,-0.0568,-0.0569,-0.0569,0,0,-0.0871,-0.0877,-0.087,-0.0858,-0.0849,-0.0845,-0.084,-0.0827,-0.0822,-0.0776,-0.0767,-0.0717,-0.0641,-0.0606,-0.0577,-0.051,-0.0516,-0.049,-0.0484,-0.0457,-0.0454,-0.045,-0.0456,-0.0452,-0.0494,-0.0494,-0.0494,0,-0.086,-0.0857,-0.0858,-0.0843,-0.0837,-0.0835,-0.082,-0.0801,-0.0771,-0.0759,-0.0761,-0.0659,-0.0613,-0.055,-0.0531,-0.0502,-0.0507,-0.0517,-0.0457,-0.0453,-0.045,-0.0456,-0.0452,-0.0495,-0.0495,-0.0495,-0.0494,0,-0.0836,-0.0827,-0.0815,-0.0807,-0.0791,-0.0773,-0.0758,-0.0737,-0.0731,-0.0718,-0.0657,-0.0603,-0.0551,-0.0521,-0.0505,-0.0448,-0.0469,-0.046,-0.0484,-0.0447,-0.0454,-0.045,-0.0496,-0.0495,-0.0495,-0.0495,0,0,-0.084,-0.0808,-0.0807,-0.0802,-0.0776,-0.0766,-0.073,-0.0707,-0.0698,-0.0651,-0.0631,-0.0536,-0.0527,-0.0491,-0.0465,-0.0436,-0.0413,-0.0442,-0.044,-0.0474,-0.0388,-0.0398,-0.0395,-0.0411,-0.041,-0.0409,-0.0415,0,-0.0828,-0.0806,-0.0788,-0.0762,-0.0753,-0.0735,-0.0708,-0.0682,-0.0661,-0.0634,-0.0581,-0.054,-0.0512,-0.0496,-0.0458,-0.0421,-0.0399,-0.0414,-0.0395,-0.0394,-0.0429,-0.0388,-0.0314,-0.0311,-0.0411,-0.041,-0.0409,0,-0.0823,-0.0812,-0.0791,-0.0763,-0.0757,-0.0739,-0.0719,-0.0691,-0.0648,-0.0631,-0.0587,-0.0557,-0.0495,-0.0481,-0.041,-0.0432,-0.0405,-0.038,-0.038,-0.0374,-0.0394,-0.0355,-0.03,-0.0106,-0.0403,-0.0403,-0.0404,0,-0.0852,-0.0817,-0.0808,-0.0797,-0.0761,-0.0751,-0.0732,-0.0696,-0.0687,-0.0636,-0.0635,-0.0559,-0.0538,-0.0478,-0.043,-0.0423,-0.0374,-0.0357,-0.0342,-0.0344,-0.0264,-0.0261,-0.0036,-0.0301,-0.0301,-0.0301,-0.0301,0,-0.0857,-0.0846,-0.0825,-0.082,-0.0817,-0.0779,-0.0772,-0.0742,-0.0713,-0.0715,-0.0643,-0.0645,-0.0538,-0.0504,-0.0445,-0.0393,-0.0387,-0.0331,-0.0334,-0.0272,-0.027,-0.0085,-0.0029,-0.0301,-0.0301,-0.0301,-0.0301,0,-0.0875,-0.086,-0.0854,-0.0832,-0.0831,-0.0829,-0.0812,-0.0813,-0.0776,-0.0781,-0.0771,-0.0712,-0.0669,-0.0582,-0.0496,-0.0427,-0.0269,-0.035,-0.0303,-0.0299,-0.0088,-0.0039,0.01,0.0179,-0.0315,-0.0316,-0.0316,0,-0.0871,-0.0874,-0.0879,-0.0895,-0.0885,-0.0883,-0.0892,-0.0854,-0.0866,-0.084,-0.0858,-0.0809,-0.081,-0.0688,-0.0527,-0.042,-0.0287,-0.028,-0.0225,-0.0051,0.0002,0.0025,0.0084,-0.0139,-0.0137,-0.0136,-0.0135,0,-0.0867,-0.0882,-0.0883,-0.0931,-0.0952,-0.0968,-0.0978,-0.1003,-0.0976,-0.0994,-0.102,-0.1017,-0.0873,-0.0723,-0.0549,-0.044,-0.0128,-0.0256,-0.0057,0.0179,0.0205,0.027,-0.019,-0.0125,-0.0126,-0.0127,-0.0128,-0.0128,-0.0867,-0.0886,-0.0917,-0.0958,-0.0996,-0.1051,-0.1077,-0.1116,-0.1158,-0.1202,-0.1178,-0.1167,-0.0863,-0.0607,-0.0471,-0.0015,-0.0087,0.0136,0.0179,0.0186,0.0288,-0.0175,-0.0126,-0.0127,-0.0128,-0.0129,-0.0129,0,-0.0866,-0.0899,-0.0943,-0.1005,-0.1069,-0.1073,-0.1135,-0.1178,-0.1263,-0.1316,-0.1359,-0.1055,-0.0752,-0.0372,0.0213,0.043,0.05,0.0563,0.0679,0.0717,0.035,0.039,0.0534,0.0534,0.0533,0.0533,0.0533,0.0533,-0.0866,-0.0914,-0.0949,-0.1054,-0.1105,-0.1183,-0.1223,-0.1298,-0.1345,-0.1337,-0.121,-0.1115,-0.0461,0.0342,0.0903,0.0954,0.1135,0.1087,0.1149,0.0985,0.0952,0.092,0.0979,0.1244,0.1244,0.1553,0.1556,0.1559]}],[{"header":{"parameterUnit":"m.s-1","parameterCategory":2,"la1":30.2991,"la2":30.254,"lo1":-89.0895,"lo2":-89.0444,"dy":0.0017,"dx":0.0017,"nx":28,"ny":28,"refTime":"2024-08-11T09:00:00:Z","depth":"2","parameterNumber":2,"parameterNumberName":"U-component_of_CURRENTS"},"data":[0,0,0,0,0,0,0,0,0,0,0,0,0,0,0,0,0,0,0,0,0,0,0,0,0,0,0,0,0,0,0,0,0,0,0,0,0,0,0,0,0,0,0,0,0,0,0,0,0,0,0,0,0,0,0,0,0,0,-0.254,-0.254,0,-0.2555,-0.2555,-0.2554,-0.2537,-0.2537,-0.2536,-0.2536,-0.2512,-0.2512,-0.2511,0,0,0,0,0,0,0,0,0,0,0,0,0,-0.244,-0.2442,-0.254,-0.254,-0.2541,-0.2555,-0.2555,-0.2554,-0.2537,-0.2537,-0.2536,-0.2536,-0.2512,-0.2512,-0.2511,0,0,0,0,0,0,0,0,0,0,0,0,0,-0.2469,-0.2442,-0.254,-0.2536,-0.2536,-0.2555,-0.2555,-0.2554,-0.2537,-0.2537,-0.2536,-0.2536,-0.2512,-0.2512,-0.2511,-0.252,0,0,-0.251,-0.251,0,0,0,0,0,0,0,0,-0.2468,-0.2473,-0.2536,-0.2536,-0.2536,-0.2546,-0.251,-0.2542,-0.2537,-0.2534,-0.2536,-0.2535,-0.2522,-0.2521,-0.2521,-0.2519,-0.2518,-0.251,-0.251,-0.2509,-0.2509,0,0,0,0,0,0,0,-0.2466,-0.2472,-0.2543,-0.2537,-0.2537,-0.2514,-0.2518,-0.2516,-0.2528,-0.2534,-0.2534,-0.254,-0.2521,-0.2522,-0.252,-0.2518,-0.251,-0.251,-0.2509,-0.2509,-0.2497,-0.2497,0,0,0,0,0,0,-0.2474,-0.247,-0.2542,-0.2544,-0.2503,-0.2517,-0.2521,-0.2541,-0.2529,-0.2528,-0.254,-0.2539,-0.2523,-0.2521,-0.252,-0.25,-0.2509,-0.2509,-0.2509,-0.2497,-0.2497,-0.2497,0,0,0,0,0,0,-0.2472,-0.248,-0.2542,-0.2508,-0.2515,-0.252,-0.2542,-0.2542,-0.2544,-0.2535,-0.2532,-0.2544,-0.2522,-0.252,-0.2509,-0.25,-0.2509,-0.2508,-0.2497,-0.2497,-0.2497,-0.248,0,0,0,0,0,0,-0.2469,-0.248,-0.2487,-0.2509,-0.2517,-0.2548,-0.2543,-0.2543,-0.2551,-0.2549,-0.2537,-0.2534,-0.2522,-0.251,-0.2509,-0.25,-0.2508,-0.2497,-0.2497,-0.2497,-0.2481,-0.248,-0.2478,0,0,0,0,0,-0.2465,-0.2473,-0.2488,-0.2496,-0.2531,-0.2548,-0.2549,-0.2548,-0.2551,-0.2549,-0.2539,-0.2534,-0.2508,-0.251,-0.2508,-0.2499,-0.2497,-0.2497,-0.2497,-0.2481,-0.248,-0.2478,0,0,0,0,0,0,-0.2431,-0.2473,-0.2489,-0.251,-0.2529,-0.2546,-0.2545,-0.2554,-0.2546,-0.2545,-0.2534,-0.253,-0.2515,-0.2515,-0.2517,-0.2496,-0.2503,-0.2502,-0.2491,-0.249,-0.2488,-0.2468,-0.2508,0,0,0,0,0,-0.2431,-0.2446,-0.2486,-0.2499,-0.2516,-0.2536,-0.2541,-0.2548,-0.2551,-0.2548,-0.2549,-0.2539,-0.2515,-0.2509,-0.2498,-0.2492,-0.2459,-0.2485,-0.2484,-0.2483,-0.2466,-0.242,-0.2412,-0.2496,-0.2496,-0.2496,0,0,-0.2422,-0.2445,-0.2454,-0.2492,-0.251,-0.2521,-0.2536,-0.2552,-0.2547,-0.2547,-0.2543,-0.2537,-0.2513,-0.2496,-0.249,-0.2493,-0.244,-0.2483,-0.2482,-0.2465,-0.2418,-0.241,-0.2402,-0.2496,-0.2496,-0.2496,0,0,-0.2393,-0.2438,-0.2435,-0.2459,-0.249,-0.2508,-0.2517,-0.2551,-0.2551,-0.2548,-0.2541,-0.2525,-0.2514,-0.2488,-0.2469,-0.2458,-0.2435,-0.247,-0.2445,-0.2401,-0.2393,-0.2385,-0.2319,-0.2306,-0.247,-0.247,-0.247,0,-0.2374,-0.239,-0.2433,-0.2439,-0.2458,-0.2505,-0.2509,-0.2516,-0.2537,-0.254,-0.254,-0.2513,-0.2497,-0.2455,-0.2443,-0.2451,-0.2421,-0.2451,-0.2397,-0.2389,-0.2381,-0.2315,-0.2301,-0.2469,-0.2469,-0.2469,-0.2469,0,-0.2342,-0.2362,-0.2368,-0.2395,-0.2419,-0.2436,-0.2471,-0.2492,-0.2507,-0.2512,-0.2495,-0.2473,-0.2451,-0.2449,-0.2432,-0.2385,-0.2377,-0.2399,-0.2396,-0.2371,-0.2304,-0.2289,-0.2468,-0.2468,-0.2468,-0.2468,0,0,-0.2262,-0.2332,-0.2329,-0.2351,-0.2405,-0.2422,-0.2435,-0.2457,-0.2458,-0.2467,-0.2449,-0.2408,-0.2414,-0.2393,-0.2387,-0.2347,-0.2259,-0.2349,-0.2348,-0.2274,-0.2142,-0.2216,-0.2206,-0.2279,-0.2277,-0.2275,-0.211,0,-0.2217,-0.2234,-0.2275,-0.229,-0.2314,-0.2378,-0.2384,-0.2411,-0.2426,-0.2425,-0.2407,-0.2381,-0.2387,-0.237,-0.2331,-0.2281,-0.2222,-0.23,-0.2184,-0.218,-0.2241,-0.2193,-0.1972,-0.1815,-0.2095,-0.2093,-0.2091,0,-0.2142,-0.2181,-0.2191,-0.2267,-0.2282,-0.2281,-0.2326,-0.2341,-0.2357,-0.2368,-0.2356,-0.2355,-0.2292,-0.2304,-0.2184,-0.2238,-0.2177,-0.2138,-0.2131,-0.2194,-0.2227,-0.1889,-0.1778,-0.2066,-0.2068,-0.207,-0.2072,0,-0.2049,-0.2109,-0.2122,-0.2146,-0.2232,-0.2232,-0.2266,-0.2303,-0.2319,-0.2319,-0.232,-0.2278,-0.2234,-0.2168,-0.211,-0.2131,-0.1983,-0.2002,-0.2002,-0.2005,-0.179,-0.1781,-0.1898,-0.1898,-0.1898,-0.1899,-0.1899,0,-0.1978,-0.198,-0.2073,-0.2081,-0.2096,-0.2168,-0.2167,-0.2206,-0.2235,-0.2237,-0.2269,-0.2245,-0.2199,-0.2139,-0.208,-0.2002,-0.1953,-0.1972,-0.1967,-0.1782,-0.1774,-0.1983,-0.1995,-0.1892,-0.1894,-0.1895,-0.1896,0,-0.1852,-0.1916,-0.1934,-0.2023,-0.2044,-0.2043,-0.2114,-0.212,-0.2163,-0.216,-0.2157,-0.2177,-0.2118,-0.2088,-0.197,-0.1959,-0.1881,-0.1866,-0.1657,-0.1635,-0.1926,-0.1939,-0.1814,-0.1815,-0.1816,-0.1817,-0.1818,0,-0.1791,-0.1785,-0.1871,-0.1881,-0.1905,-0.1936,-0.196,-0.2052,-0.207,-0.2114,-0.2099,-0.2078,-0.205,-0.195,-0.1898,-0.1811,-0.1874,-0.1605,-0.1626,-0.1909,-0.1916,-0.1928,-0.1939,-0.1292,-0.1288,-0.1285,-0.1283,0,-0.1674,-0.1688,-0.172,-0.1752,-0.177,-0.1819,-0.1859,-0.1888,-0.1985,-0.2002,-0.2004,-0.1983,-0.1914,-0.1758,-0.1719,-0.1642,-0.1616,-0.1552,-0.1826,-0.142,-0.1423,-0.1431,-0.1456,-0.1256,-0.1259,-0.1261,-0.1262,-0.1263,-0.1565,-0.1556,-0.159,-0.1606,-0.1639,-0.1676,-0.1693,-0.1764,-0.1807,-0.1794,-0.1838,-0.1745,-0.1626,-0.1494,-0.1416,-0.1397,-0.1519,-0.1408,-0.1412,-0.1419,-0.1462,-0.1475,-0.132,-0.1323,-0.1325,-0.1328,-0.133,0,-0.1442,-0.1443,-0.145,-0.1483,-0.148,-0.1533,-0.1606,-0.1597,-0.1627,-0.1628,-0.1588,-0.1323,-0.1199,-0.1167,-0.1096,-0.1104,-0.1026,-0.1057,-0.091,-0.0936,-0.0959,-0.0975,-0.0705,-0.0704,-0.0703,-0.0702,0,0,-0.1374,-0.1342,-0.1356,-0.1314,-0.1327,-0.1317,-0.1344,-0.1342,-0.1356,-0.127,-0.1208,-0.1122,-0.1138,-0.0909,-0.0839,-0.08,-0.0873,-0.0755,-0.124,-0.1094,-0.1117,-0.1131,-0.1184,0,0,0,0,0]},{"header":{"parameterUnit":"m.s-1","parameterCategory":2,"la1":30.2991,"la2":30.254,"lo1":-89.0895,"lo2":-89.0444,"dy":0.0017,"dx":0.0017,"nx":28,"ny":28,"refTime":"2024-08-11T09:00:00:Z","depth":"2","parameterNumber":3,"parameterNumberName":"V-component_of_CURRENTS"},"data":[0,0,0,0,0,0,0,0,0,0,0,0,0,0,0,0,0,0,0,0,0,0,0,0,0,0,0,0,0,0,0,0,0,0,0,0,0,0,0,0,0,0,0,0,0,0,0,0,0,0,0,0,0,0,0,0,0,0,0.0008,0.0008,0,0.0052,0.0053,0.0053,-0.0003,-0.0005,-0.0007,-0.0009,0.0018,0.002,0.0023,0,0,0,0,0,0,0,0,0,0,0,0,0,-0.0032,-0.0031,0.0008,0.0008,0.0009,0.0052,0.0053,0.0053,-0.0003,-0.0005,-0.0008,-0.001,0.0017,0.002,0.0023,0,0,0,0,0,0,0,0,0,0,0,0,0,-0.0005,-0.0031,0.0008,-0.0013,-0.0014,0.0052,0.0053,0.0053,-0.0002,-0.0005,-0.0008,-0.0011,0.0016,0.002,0.0023,0.0106,0,0,0.0035,0.0037,0,0,0,0,0,0,0,0,-0.0006,-0.0003,-0.0011,-0.0012,-0.0013,0.0017,0.0049,0.007,-0.0001,-0.0008,-0.0009,-0.0012,0.0019,0.0022,0.0036,0.0108,0.0109,0.0036,0.0038,0.0039,0.0041,0,0,0,0,0,0,0,-0.0008,-0.0005,0.0024,-0.001,-0.0011,0.0008,0.0007,0.0053,0.002,-0.0007,-0.0011,-0.0004,0.0017,0.0032,0.0036,0.0109,0.0035,0.0039,0.0041,0.0043,0.0099,0.0098,0,0,0,0,0,0,-0.0013,-0.0007,0.0023,0.0026,-0.0016,0.0011,0.001,0.0009,0.002,0.0019,-0.0001,-0.0007,0.0027,0.0032,0.0037,0.002,0.0039,0.0043,0.0045,0.01,0.0099,0.0098,0,0,0,0,0,0,-0.0014,-0.0011,0.0021,0.0011,0.0017,0.0014,0.0014,0.0012,-0.003,0.0025,0.0023,-0.0048,0.0025,0.0031,0.0022,0.0025,0.0045,0.0048,0.0101,0.01,0.0099,0.0061,0,0,0,0,0,0,-0.0016,-0.0012,-0.0029,0.0011,0.0017,0.0012,0.0017,0.0015,-0.0017,-0.0025,-0.0013,-0.0011,0.0023,0.0016,0.0025,0.003,0.0051,0.0102,0.01,0.0099,0.0064,0.0059,0.0055,0,0,0,0,0,-0.0017,-0.0047,-0.003,-0.0028,-0.0002,0.0011,0.0014,0.0004,-0.0017,-0.0044,-0.004,-0.0015,0.0013,0.0018,0.003,0.0036,0.0103,0.0101,0.0099,0.0065,0.006,0.0055,0,0,0,0,0,0,-0.009,-0.0053,-0.0036,-0.0056,-0.0038,0.0,-0.0028,-0.0023,-0.0038,-0.0061,-0.002,-0.0016,-0.0021,0.0006,0.001,0.0044,0.0062,0.0062,0.0032,0.0027,0.0023,0.0037,0.0054,0,0,0,0,0,-0.0102,-0.012,-0.0068,-0.0095,-0.0085,-0.0059,-0.0062,-0.0065,-0.0059,-0.0072,-0.0063,-0.0045,-0.0003,0.0002,0.003,0.0053,0.0113,0.0061,0.0057,0.0053,0.007,0.0185,0.0194,0.0092,0.0092,0.0092,0,0,-0.0143,-0.0124,-0.0138,-0.0112,-0.01,-0.0085,-0.0073,-0.0097,-0.0092,-0.006,-0.0089,-0.0064,-0.0005,0.0015,0.0017,0.0029,0.0101,0.0051,0.0048,0.0067,0.0184,0.0195,0.0204,0.0091,0.0091,0.0092,0,0,-0.0208,-0.021,-0.0224,-0.0203,-0.0183,-0.0157,-0.0175,-0.0156,-0.0164,-0.0156,-0.0133,-0.0108,-0.0075,-0.0017,0.0023,0.0016,0.0073,-0.0001,-0.0001,0.0109,0.012,0.013,0.0175,0.019,0.0001,0.0,0.0,0,-0.0252,-0.025,-0.0232,-0.022,-0.0212,-0.0195,-0.0194,-0.0178,-0.0175,-0.0159,-0.0184,-0.0095,-0.0065,0.0022,0.0005,0.0015,0.0053,0.0016,0.0108,0.012,0.0131,0.0176,0.0193,-0.0002,-0.0001,-0.0001,-0.0001,0,-0.0287,-0.0292,-0.0308,-0.0276,-0.0271,-0.0284,-0.0237,-0.0251,-0.0253,-0.0209,-0.0166,-0.0112,-0.0051,-0.0041,-0.0018,0.0068,0.0057,0.009,0.0129,0.014,0.0184,0.0202,-0.0004,-0.0004,-0.0003,-0.0003,0,0,-0.0347,-0.0333,-0.0336,-0.0326,-0.0302,-0.0298,-0.0292,-0.0247,-0.0223,-0.0205,-0.0149,-0.0082,-0.0056,-0.0012,0.0022,0.0107,0.0197,0.0112,0.0119,0.0169,0.0389,0.0336,0.0351,0.0242,0.0246,0.0249,0.0372,0,-0.037,-0.0378,-0.0356,-0.0366,-0.0359,-0.0333,-0.0315,-0.0278,-0.024,-0.0189,-0.0098,-0.0041,-0.004,-0.0016,0.0072,0.0171,0.025,0.0158,0.0361,0.0366,0.0331,0.0373,0.0332,0.0436,0.0391,0.0394,0.0396,0,-0.0369,-0.0383,-0.04,-0.0388,-0.0381,-0.0379,-0.0343,-0.0321,-0.0223,-0.0189,-0.0107,-0.0045,0.0066,0.0072,0.0269,0.02,0.0285,0.0365,0.0373,0.036,0.035,0.0426,0.0472,0.0428,0.0425,0.0423,0.0421,0,-0.0392,-0.0395,-0.0423,-0.0419,-0.0403,-0.0404,-0.0395,-0.0323,-0.0292,-0.0187,-0.0142,-0.0004,0.0067,0.021,0.0328,0.0309,0.0548,0.0559,0.0596,0.0591,0.0618,0.0609,0.0728,0.0727,0.0727,0.0727,0.0726,0,-0.0395,-0.0406,-0.0439,-0.0448,-0.0464,-0.0438,-0.0421,-0.0384,-0.0307,-0.0242,-0.0151,-0.0059,0.0109,0.0248,0.0356,0.0514,0.0577,0.0612,0.0641,0.0593,0.058,0.0629,0.0616,0.0731,0.073,0.0729,0.0729,0,-0.039,-0.0413,-0.0438,-0.0463,-0.047,-0.0481,-0.0464,-0.0439,-0.0368,-0.0279,-0.025,-0.0082,0.009,0.0237,0.0478,0.0546,0.0709,0.0751,0.0636,0.0649,0.0665,0.0649,0.0823,0.0823,0.0822,0.0822,0.0822,0,-0.0383,-0.04,-0.0463,-0.0493,-0.0508,-0.0523,-0.0526,-0.0479,-0.0445,-0.0278,-0.0231,-0.0053,0.0102,0.0385,0.0526,0.0701,0.0723,0.0753,0.0731,0.0676,0.0687,0.067,0.0654,0.0737,0.0736,0.0735,0.0735,0,-0.0367,-0.0401,-0.0442,-0.0521,-0.0553,-0.0574,-0.0572,-0.0547,-0.046,-0.0356,-0.0174,-0.0028,0.0212,0.0405,0.0573,0.0671,0.0714,0.0741,0.0789,0.0693,0.0599,0.0607,0.0594,0.0728,0.0729,0.0729,0.073,0.073,-0.0356,-0.04,-0.0475,-0.0545,-0.0589,-0.0613,-0.0622,-0.057,-0.0485,-0.0341,-0.0183,0.0017,0.0208,0.0434,0.0569,0.0659,0.0699,0.073,0.0732,0.0735,0.0678,0.0586,0.0699,0.07,0.07,0.07,0.0701,0,-0.0334,-0.0408,-0.0488,-0.0582,-0.0646,-0.066,-0.0649,-0.0622,-0.0509,-0.0377,-0.0217,-0.0018,0.0207,0.0377,0.0528,0.0647,0.0641,0.0641,0.0632,0.0639,0.0644,0.0582,0.0578,0.0578,0.0578,0.0577,0,0,-0.0329,-0.041,-0.048,-0.0612,-0.0683,-0.0745,-0.0741,-0.065,-0.0562,-0.0407,-0.0291,-0.0118,0.0172,0.0239,0.0402,0.0488,0.0507,0.047,0.0561,0.0536,0.0539,0.0698,0.0608,0,0,0,0,0]}],[{"header":{"parameterUnit":"m.s-1","parameterCategory":2,"la1":30.2991,"la2":30.254,"lo1":-89.0895,"lo2":-89.0444,"dy":0.0017,"dx":0.0017,"nx":28,"ny":28,"refTime":"2024-08-11T09:00:00:Z","depth":"4","parameterNumber":2,"parameterNumberName":"U-component_of_CURRENTS"},"data":[0,0,0,0,0,0,0,0,0,0,0,0,0,0,0,0,0,0,0,0,0,0,0,0,0,0,0,0,0,0,0,0,0,0,0,0,0,0,0,0,0,0,0,0,0,0,0,0,0,0,0,0,0,0,0,0,0,0,-0.0974,-0.0975,0,-0.1037,-0.1038,-0.1039,-0.1063,-0.1063,-0.1063,-0.1063,-0.1102,-0.1103,-0.1104,0,0,0,0,0,0,0,0,0,0,0,0,0,-0.0912,-0.0913,-0.0974,-0.0975,-0.0976,-0.1037,-0.1038,-0.1039,-0.1063,-0.1063,-0.1063,-0.1063,-0.1102,-0.1103,-0.1104,0,0,0,0,0,0,0,0,0,0,0,0,0,-0.0952,-0.0913,-0.0974,-0.0997,-0.0999,-0.1037,-0.1038,-0.1039,-0.1063,-0.1063,-0.1063,-0.1063,-0.1101,-0.1103,-0.1105,-0.1116,0,0,-0.111,-0.111,0,0,0,0,0,0,0,0,-0.095,-0.0954,-0.0992,-0.0995,-0.0998,-0.1043,-0.1031,-0.1064,-0.1063,-0.1038,-0.1063,-0.1063,-0.1081,-0.1085,-0.1095,-0.1118,-0.112,-0.111,-0.1111,-0.1111,-0.1112,0,0,0,0,0,0,0,-0.0947,-0.0952,-0.0998,-0.0993,-0.0997,-0.1016,-0.1021,-0.1037,-0.1058,-0.104,-0.1042,-0.1051,-0.1082,-0.1093,-0.1096,-0.112,-0.111,-0.1111,-0.1112,-0.1113,-0.1237,-0.1239,0,0,0,0,0,0,-0.094,-0.0949,-0.0996,-0.1,-0.0975,-0.1017,-0.1023,-0.1028,-0.1058,-0.1063,-0.1051,-0.1052,-0.1091,-0.1094,-0.1098,-0.1175,-0.1111,-0.1113,-0.1114,-0.1235,-0.1237,-0.124,0,0,0,0,0,0,-0.0938,-0.0943,-0.0993,-0.0977,-0.0985,-0.1018,-0.1024,-0.1029,-0.106,-0.1067,-0.1072,-0.1079,-0.1091,-0.1095,-0.1137,-0.1175,-0.1114,-0.1115,-0.1232,-0.1235,-0.1239,-0.1291,0,0,0,0,0,0,-0.0936,-0.0942,-0.0953,-0.0977,-0.0986,-0.1026,-0.1024,-0.1031,-0.1066,-0.1068,-0.1092,-0.1095,-0.1091,-0.1135,-0.1138,-0.1176,-0.1116,-0.1229,-0.1233,-0.1238,-0.1286,-0.1296,-0.1304,0,0,0,0,0,-0.0934,-0.094,-0.0953,-0.0959,-0.0996,-0.1027,-0.1034,-0.1056,-0.1067,-0.1084,-0.1109,-0.1095,-0.1165,-0.1138,-0.1142,-0.118,-0.1227,-0.1232,-0.1237,-0.1282,-0.1294,-0.1304,0,0,0,0,0,0,-0.0915,-0.0944,-0.0958,-0.0973,-0.1006,-0.1032,-0.1044,-0.1071,-0.1105,-0.111,-0.1118,-0.1123,-0.1181,-0.1175,-0.1145,-0.1232,-0.1197,-0.1203,-0.123,-0.1241,-0.1249,-0.1263,-0.1118,0,0,0,0,0,-0.0918,-0.0935,-0.0965,-0.0982,-0.099,-0.1025,-0.1045,-0.1068,-0.1097,-0.1113,-0.1131,-0.116,-0.1204,-0.1216,-0.1245,-0.1283,-0.1258,-0.1314,-0.1323,-0.133,-0.1347,-0.134,-0.1348,-0.1257,-0.1257,-0.1257,0,0,-0.092,-0.0936,-0.0949,-0.0981,-0.1,-0.1018,-0.1036,-0.107,-0.11,-0.1111,-0.1151,-0.1194,-0.1225,-0.1276,-0.13,-0.1274,-0.1341,-0.1337,-0.1343,-0.1356,-0.1346,-0.1355,-0.1362,-0.1261,-0.126,-0.1259,0,0,-0.0922,-0.0939,-0.0951,-0.0978,-0.1016,-0.103,-0.1045,-0.1085,-0.1113,-0.1167,-0.1195,-0.1259,-0.1301,-0.1338,-0.1362,-0.1437,-0.1396,-0.1453,-0.1497,-0.149,-0.1497,-0.1503,-0.1462,-0.1463,-0.1447,-0.1447,-0.1447,0,-0.0928,-0.0941,-0.0963,-0.0982,-0.1003,-0.1034,-0.1056,-0.1086,-0.1144,-0.1177,-0.1184,-0.1297,-0.1332,-0.1406,-0.1457,-0.1456,-0.1435,-0.1449,-0.1499,-0.1504,-0.1509,-0.1466,-0.1467,-0.145,-0.145,-0.145,-0.1449,0,-0.0924,-0.0956,-0.0961,-0.0989,-0.1017,-0.1041,-0.108,-0.1091,-0.113,-0.1199,-0.1292,-0.1347,-0.1419,-0.145,-0.149,-0.1562,-0.1528,-0.1513,-0.1463,-0.1521,-0.1472,-0.1472,-0.1455,-0.1454,-0.1453,-0.1452,0,0,-0.0897,-0.0948,-0.0955,-0.0976,-0.1027,-0.1041,-0.1061,-0.1111,-0.1142,-0.1224,-0.1268,-0.1414,-0.1486,-0.1521,-0.157,-0.1589,-0.1623,-0.1587,-0.1585,-0.1531,-0.1585,-0.1453,-0.1439,-0.1614,-0.1615,-0.1615,-0.1528,0,-0.0892,-0.0915,-0.0952,-0.0988,-0.1003,-0.1027,-0.106,-0.112,-0.1172,-0.1214,-0.131,-0.1411,-0.15,-0.1554,-0.1594,-0.1641,-0.1631,-0.1647,-0.1552,-0.1549,-0.1412,-0.1438,-0.1619,-0.1528,-0.1528,-0.1528,-0.1528,0,-0.0883,-0.0898,-0.0928,-0.0989,-0.0998,-0.1027,-0.1047,-0.1096,-0.1174,-0.1234,-0.1335,-0.1414,-0.1535,-0.1548,-0.1642,-0.1653,-0.1636,-0.1633,-0.1627,-0.149,-0.1418,-0.1466,-0.1527,-0.1527,-0.1527,-0.1527,-0.1527,0,-0.0836,-0.089,-0.0906,-0.0928,-0.0991,-0.0999,-0.1034,-0.1117,-0.1164,-0.1262,-0.1292,-0.1442,-0.1503,-0.1541,-0.1599,-0.1632,-0.1603,-0.1625,-0.146,-0.1448,-0.1568,-0.1563,-0.1608,-0.1608,-0.1608,-0.1609,-0.1609,0,-0.0811,-0.0831,-0.0886,-0.0895,-0.0926,-0.0997,-0.1034,-0.1088,-0.1162,-0.1207,-0.134,-0.1347,-0.1511,-0.1513,-0.1551,-0.1508,-0.1566,-0.1471,-0.1423,-0.159,-0.1589,-0.1565,-0.1562,-0.1605,-0.1606,-0.1607,-0.1607,0,-0.0763,-0.0803,-0.0827,-0.0883,-0.0915,-0.0939,-0.1018,-0.103,-0.1143,-0.1156,-0.1194,-0.1313,-0.1354,-0.1412,-0.1445,-0.1433,-0.1399,-0.1328,-0.1468,-0.1429,-0.1261,-0.1262,-0.1188,-0.1183,-0.1178,-0.1175,-0.1172,0,-0.0735,-0.0747,-0.0805,-0.0806,-0.0834,-0.0875,-0.0899,-0.102,-0.1032,-0.1097,-0.1081,-0.1141,-0.1189,-0.1141,-0.123,-0.1231,-0.1214,-0.118,-0.1289,-0.126,-0.1222,-0.123,-0.1236,-0.1165,-0.1163,-0.1162,-0.1161,0,-0.0681,-0.0709,-0.0718,-0.073,-0.0751,-0.0751,-0.0792,-0.0803,-0.0894,-0.0974,-0.0965,-0.0979,-0.097,-0.1056,-0.1035,-0.1036,-0.1229,-0.1135,-0.1147,-0.1249,-0.123,-0.1199,-0.121,-0.1146,-0.1148,-0.1149,-0.115,0,-0.0641,-0.0627,-0.0644,-0.0645,-0.0657,-0.0626,-0.0656,-0.0661,-0.0717,-0.0815,-0.078,-0.0833,-0.0921,-0.0939,-0.0914,-0.0925,-0.0958,-0.0966,-0.0988,-0.1006,-0.0995,-0.0948,-0.0732,0,0,0,0,0,-0.0586,-0.0561,-0.0549,-0.0532,-0.0524,-0.0533,-0.0581,-0.0608,-0.0684,-0.0656,-0.0736,-0.0717,-0.0737,-0.0786,-0.0772,-0.0835,-0.0951,-0.0812,-0.0969,-0.106,-0.1078,-0.1087,0,0,0,0,0,0,-0.0548,-0.0538,-0.0526,-0.0442,-0.0395,-0.0382,-0.0408,-0.045,-0.0467,-0.0552,-0.0592,-0.0651,-0.0711,-0.0725,-0.0745,-0.0756,-0.0838,-0.0862,-0.086,-0.105,-0.1066,-0.1081,-0.1096,0,0,0,0,0]},{"header":{"parameterUnit":"m.s-1","parameterCategory":2,"la1":30.2991,"la2":30.254,"lo1":-89.0895,"lo2":-89.0444,"dy":0.0017,"dx":0.0017,"nx":28,"ny":28,"refTime":"2024-08-11T09:00:00:Z","depth":"4","parameterNumber":3,"parameterNumberName":"V-component_of_CURRENTS"},"data":[0,0,0,0,0,0,0,0,0,0,0,0,0,0,0,0,0,0,0,0,0,0,0,0,0,0,0,0,0,0,0,0,0,0,0,0,0,0,0,0,0,0,0,0,0,0,0,0,0,0,0,0,0,0,0,0,0,0,-0.0102,-0.0102,0,-0.0097,-0.0097,-0.0097,-0.0054,-0.0053,-0.0051,-0.005,-0.0052,-0.0053,-0.0054,0,0,0,0,0,0,0,0,0,0,0,0,0,-0.0076,-0.0077,-0.0102,-0.0102,-0.0102,-0.0097,-0.0097,-0.0097,-0.0054,-0.0053,-0.0051,-0.0049,-0.0051,-0.0053,-0.0054,0,0,0,0,0,0,0,0,0,0,0,0,0,-0.0083,-0.0077,-0.0102,-0.0077,-0.0075,-0.0096,-0.0097,-0.0097,-0.0055,-0.0052,-0.005,-0.0049,-0.0051,-0.0053,-0.0055,-0.0107,0,0,-0.0061,-0.0061,0,0,0,0,0,0,0,0,-0.0083,-0.0085,-0.0081,-0.0079,-0.0076,-0.0071,-0.0088,-0.01,-0.0055,-0.0066,-0.005,-0.0048,-0.0059,-0.006,-0.0067,-0.0107,-0.0107,-0.0061,-0.0062,-0.0063,-0.0063,0,0,0,0,0,0,0,-0.0083,-0.0085,-0.0103,-0.0081,-0.0078,-0.0066,-0.0065,-0.009,-0.0076,-0.0064,-0.0061,-0.0056,-0.0057,-0.0066,-0.0067,-0.0107,-0.0061,-0.0062,-0.0064,-0.0064,-0.0177,-0.0179,0,0,0,0,0,0,-0.008,-0.0085,-0.0103,-0.0103,-0.0071,-0.0068,-0.0067,-0.0077,-0.0075,-0.0072,-0.0057,-0.0054,-0.0063,-0.0065,-0.0067,-0.0129,-0.0063,-0.0065,-0.0066,-0.0175,-0.0177,-0.0179,0,0,0,0,0,0,-0.008,-0.0082,-0.0103,-0.009,-0.0091,-0.007,-0.0082,-0.0078,-0.0078,-0.0069,-0.0066,-0.0059,-0.0062,-0.0064,-0.0093,-0.0129,-0.0065,-0.0067,-0.0173,-0.0176,-0.0178,-0.0254,0,0,0,0,0,0,-0.0079,-0.0083,-0.0092,-0.009,-0.0092,-0.0124,-0.0084,-0.0079,-0.0077,-0.0072,-0.0071,-0.0069,-0.006,-0.009,-0.0095,-0.013,-0.0069,-0.0171,-0.0174,-0.0177,-0.0249,-0.0259,-0.0267,0,0,0,0,0,-0.0079,-0.0103,-0.0093,-0.0095,-0.0105,-0.0125,-0.0126,-0.0105,-0.0079,-0.0095,-0.009,-0.0069,-0.0115,-0.0094,-0.0099,-0.0135,-0.0169,-0.0173,-0.0177,-0.0245,-0.0257,-0.0267,0,0,0,0,0,0,-0.0103,-0.0101,-0.0089,-0.0113,-0.012,-0.0117,-0.0127,-0.0112,-0.0121,-0.0114,-0.0097,-0.0097,-0.0131,-0.0129,-0.0106,-0.0178,-0.0138,-0.0143,-0.0187,-0.0199,-0.0208,-0.0204,-0.007,0,0,0,0,0,-0.0112,-0.0129,-0.0125,-0.0148,-0.0149,-0.0139,-0.0142,-0.0133,-0.0137,-0.0137,-0.0137,-0.0142,-0.0157,-0.0171,-0.0182,-0.0233,-0.0192,-0.0259,-0.0268,-0.0276,-0.0277,-0.0249,-0.0255,-0.0193,-0.0193,-0.0193,0,0,-0.0128,-0.013,-0.0139,-0.0154,-0.0154,-0.0186,-0.0137,-0.0153,-0.0183,-0.014,-0.0183,-0.0172,-0.0175,-0.0221,-0.0237,-0.0223,-0.0271,-0.0281,-0.0287,-0.0284,-0.0254,-0.026,-0.0265,-0.0196,-0.0195,-0.0195,0,0,-0.0174,-0.0171,-0.0198,-0.0211,-0.0216,-0.0221,-0.0226,-0.023,-0.023,-0.0275,-0.0241,-0.0265,-0.0291,-0.0306,-0.0315,-0.039,-0.0313,-0.0376,-0.0431,-0.0405,-0.0409,-0.0412,-0.0357,-0.0355,-0.039,-0.039,-0.0391,0,-0.0185,-0.0225,-0.0212,-0.0245,-0.0261,-0.0241,-0.0281,-0.0296,-0.0311,-0.0321,-0.03,-0.0332,-0.0346,-0.0388,-0.0409,-0.0415,-0.0351,-0.0388,-0.0415,-0.0417,-0.0419,-0.0362,-0.0358,-0.0395,-0.0394,-0.0394,-0.0393,0,-0.0253,-0.0284,-0.0304,-0.0342,-0.0366,-0.0397,-0.041,-0.0436,-0.0435,-0.0438,-0.0465,-0.047,-0.0485,-0.0496,-0.0478,-0.05,-0.0433,-0.0419,-0.0382,-0.0429,-0.0366,-0.0361,-0.04,-0.0399,-0.0398,-0.0397,0,0,-0.027,-0.0334,-0.0342,-0.0373,-0.0415,-0.0443,-0.0504,-0.0543,-0.0567,-0.0582,-0.0608,-0.0645,-0.0608,-0.0614,-0.0585,-0.0569,-0.0544,-0.0492,-0.0489,-0.0428,-0.0431,-0.0326,-0.031,-0.0502,-0.0502,-0.0502,-0.0376,0,-0.0318,-0.0399,-0.0422,-0.0509,-0.0548,-0.0564,-0.0619,-0.0654,-0.0666,-0.0691,-0.0685,-0.0699,-0.0662,-0.0654,-0.0637,-0.0555,-0.0533,-0.0576,-0.0402,-0.0397,-0.0291,-0.0303,-0.0502,-0.0372,-0.0371,-0.037,-0.0369,0,-0.0367,-0.0418,-0.0505,-0.0581,-0.0598,-0.0655,-0.072,-0.0765,-0.0795,-0.0791,-0.0793,-0.0764,-0.0755,-0.0715,-0.0606,-0.0611,-0.0533,-0.047,-0.0464,-0.0335,-0.0283,-0.0318,-0.0359,-0.036,-0.036,-0.0361,-0.0362,0,-0.0378,-0.0472,-0.0544,-0.0573,-0.066,-0.0706,-0.0753,-0.0798,-0.0819,-0.0845,-0.0842,-0.0815,-0.0788,-0.0695,-0.0564,-0.0571,-0.0408,-0.042,-0.0257,-0.0247,-0.0345,-0.0342,-0.0358,-0.0358,-0.0358,-0.0359,-0.0359,0,-0.041,-0.047,-0.0558,-0.0597,-0.0683,-0.0734,-0.0802,-0.0839,-0.0868,-0.0871,-0.088,-0.0842,-0.0772,-0.0669,-0.056,-0.036,-0.0407,-0.0254,-0.021,-0.0379,-0.0382,-0.0339,-0.0339,-0.0354,-0.0355,-0.0356,-0.0357,0,-0.0414,-0.0469,-0.0555,-0.0655,-0.069,-0.0752,-0.0829,-0.0863,-0.0886,-0.0887,-0.089,-0.085,-0.0698,-0.0595,-0.0434,-0.0342,-0.0187,-0.0113,-0.0267,-0.0235,-0.0048,-0.0054,0.0064,0.0069,0.0073,0.0076,0.0079,0,-0.0428,-0.047,-0.0585,-0.063,-0.0681,-0.0767,-0.0814,-0.0868,-0.0875,-0.0854,-0.0834,-0.0734,-0.0673,-0.0372,-0.0268,-0.0056,-0.0034,0.0032,-0.005,-0.0037,-0.0006,-0.0018,-0.0028,0.0085,0.0086,0.0087,0.0088,0,-0.0446,-0.0483,-0.0548,-0.0631,-0.0698,-0.0767,-0.0823,-0.0821,-0.0842,-0.0863,-0.0749,-0.0635,-0.0461,-0.03,-0.0129,0.0015,-0.0023,0.0074,0.0064,-0.0012,-0.001,0.0014,-0.0001,0.0102,0.01,0.0099,0.0098,0,-0.0451,-0.049,-0.0557,-0.0625,-0.0703,-0.074,-0.0779,-0.0765,-0.0775,-0.074,-0.0679,-0.0543,-0.0481,-0.0254,-0.0084,0.0062,0.0073,0.0084,0.0074,0.006,0.0017,0.0016,0.0184,0,0,0,0,0,-0.0456,-0.0484,-0.0543,-0.0612,-0.0679,-0.0722,-0.0769,-0.0788,-0.0788,-0.0695,-0.0687,-0.0517,-0.028,-0.0197,-0.0028,-0.0021,0.0091,0.0181,0.0096,0.0178,0.0162,0.0121,0,0,0,0,0,0,-0.046,-0.0512,-0.0532,-0.058,-0.0616,-0.0685,-0.0716,-0.072,-0.0661,-0.0643,-0.052,-0.0471,-0.0248,-0.0369,-0.0023,0.0019,-0.001,0.0278,0.0282,0.0187,0.0173,0.016,0.0112,0,0,0,0,0]}]]